[[{"header":{"parameterUnit":"m.s-1","parameterCategory":1,"la1":30.2991,"la2":30.254,"lo1":-89.0895,"lo2":-89.0444,"dy":0.0017,"dx":0.0017,"nx":28,"ny":28,"refTime":"2025-11-26T03:00:00:Z","depth":0,"parameterNumber":2,"parameterNumberName":"U-component_of_WINDS"},"data":[0,0,0,0,0,0,0,0,0,0,0,0,0,0,0,0,0,0,0,0,0,0,0,0,0,0,0,0,0,0,0,0,0,0,0,0,0,0,0,0,0,0,0,0,0,0,0,0,0,0,0,0,0,0,0,0,0,0,-0.3812,-0.3813,0,-0.3878,-0.3879,-0.388,-0.3856,-0.3855,-0.3853,-0.3852,-0.3923,-0.3926,-0.3929,0,0,0,0,0,0,0,0,0,0,0,0,0,-0.3669,-0.3672,-0.3812,-0.3813,-0.3814,-0.3878,-0.3879,-0.388,-0.3856,-0.3855,-0.3853,-0.3851,-0.3921,-0.3925,-0.3929,0,0,0,0,0,0,0,0,0,0,0,0,0,-0.3733,-0.3673,-0.3812,-0.381,-0.381,-0.3878,-0.3879,-0.388,-0.3857,-0.3855,-0.3852,-0.385,-0.392,-0.3925,-0.393,-0.4004,0,0,-0.3945,-0.3947,0,0,0,0,0,0,0,0,-0.3729,-0.3738,-0.3809,-0.381,-0.3811,-0.3857,-0.3854,-0.3922,-0.3857,-0.3839,-0.3852,-0.3849,-0.3903,-0.3909,-0.3926,-0.4008,-0.4011,-0.3945,-0.3948,-0.395,-0.3952,0,0,0,0,0,0,0,-0.3725,-0.3735,-0.3838,-0.3811,-0.3811,-0.3807,-0.3813,-0.3867,-0.3883,-0.3841,-0.3839,-0.3847,-0.3903,-0.3921,-0.3928,-0.4012,-0.3945,-0.3949,-0.3952,-0.3954,-0.4158,-0.416,0,0,0,0,0,0,-0.372,-0.3732,-0.3836,-0.384,-0.3764,-0.3811,-0.3818,-0.3844,-0.3882,-0.3886,-0.3849,-0.3846,-0.3914,-0.3922,-0.393,-0.4021,-0.395,-0.3955,-0.3958,-0.4156,-0.4159,-0.4161,0,0,0,0,0,0,-0.3717,-0.3729,-0.3834,-0.3786,-0.3799,-0.3816,-0.3845,-0.3847,-0.3865,-0.3888,-0.3891,-0.3865,-0.3913,-0.3923,-0.3986,-0.4023,-0.3957,-0.3961,-0.4153,-0.4156,-0.416,-0.4202,0,0,0,0,0,0,-0.3713,-0.3729,-0.3757,-0.3786,-0.3801,-0.3888,-0.3847,-0.385,-0.3874,-0.387,-0.3904,-0.3908,-0.3912,-0.3979,-0.3991,-0.4028,-0.3965,-0.4149,-0.4154,-0.4159,-0.4198,-0.4207,-0.4215,0,0,0,0,0,-0.3708,-0.3767,-0.3758,-0.3771,-0.3836,-0.389,-0.3899,-0.3901,-0.3877,-0.3906,-0.392,-0.3907,-0.4016,-0.3985,-0.3999,-0.4038,-0.4147,-0.4153,-0.4158,-0.4194,-0.4205,-0.4215,0,0,0,0,0,0,-0.3742,-0.377,-0.3762,-0.3831,-0.3858,-0.3886,-0.3923,-0.3913,-0.3948,-0.3944,-0.3946,-0.3954,-0.4019,-0.4034,-0.4,-0.4113,-0.4078,-0.4087,-0.4101,-0.4111,-0.412,-0.4116,-0.3969,0,0,0,0,0,-0.3757,-0.3798,-0.382,-0.388,-0.3894,-0.3906,-0.3929,-0.3928,-0.3957,-0.3969,-0.3988,-0.4017,-0.4058,-0.4085,-0.4124,-0.4199,-0.4207,-0.4232,-0.4241,-0.4248,-0.4256,-0.4298,-0.431,-0.418,-0.418,-0.4179,0,0,-0.379,-0.3811,-0.3836,-0.3887,-0.3908,-0.3951,-0.3916,-0.3962,-0.3994,-0.3976,-0.4037,-0.4052,-0.4084,-0.4153,-0.4185,-0.4169,-0.4293,-0.4255,-0.426,-0.4265,-0.4305,-0.4317,-0.4328,-0.4183,-0.4183,-0.4182,0,0,-0.3872,-0.3891,-0.3943,-0.3964,-0.3996,-0.4003,-0.4015,-0.4044,-0.4053,-0.4113,-0.4101,-0.4139,-0.4209,-0.4233,-0.4255,-0.4344,-0.4334,-0.4356,-0.4402,-0.4443,-0.4453,-0.4462,-0.4496,-0.4508,-0.4364,-0.4364,-0.4364,0,-0.391,-0.3973,-0.3971,-0.4019,-0.4042,-0.4026,-0.4079,-0.41,-0.4143,-0.416,-0.414,-0.4228,-0.4248,-0.4324,-0.4345,-0.4362,-0.4378,-0.4354,-0.4451,-0.4461,-0.4469,-0.4501,-0.4514,-0.4367,-0.4366,-0.4366,-0.4366,0,-0.4018,-0.4061,-0.41,-0.4141,-0.4168,-0.4218,-0.4225,-0.4253,-0.4249,-0.4259,-0.4321,-0.4344,-0.4388,-0.4405,-0.4403,-0.448,-0.4469,-0.445,-0.4416,-0.4485,-0.4515,-0.4527,-0.437,-0.437,-0.4369,-0.4368,0,0,-0.4126,-0.4164,-0.4178,-0.4197,-0.4229,-0.4264,-0.4313,-0.4354,-0.4379,-0.4408,-0.4451,-0.451,-0.4492,-0.4517,-0.4516,-0.4551,-0.4622,-0.4529,-0.4529,-0.4547,-0.4711,-0.4727,-0.4741,-0.4614,-0.4617,-0.4619,-0.4709,0,-0.4212,-0.4298,-0.4298,-0.4378,-0.4419,-0.4403,-0.4446,-0.4471,-0.4481,-0.4518,-0.4529,-0.4571,-0.4544,-0.4559,-0.4593,-0.4607,-0.4656,-0.46,-0.4656,-0.4658,-0.4651,-0.4756,-0.4773,-0.4858,-0.4721,-0.4723,-0.4724,0,-0.4325,-0.4357,-0.4441,-0.4468,-0.4485,-0.4524,-0.4562,-0.4596,-0.4624,-0.4629,-0.4655,-0.4649,-0.47,-0.4662,-0.4734,-0.4695,-0.4718,-0.4728,-0.4731,-0.4739,-0.4697,-0.4769,-0.4884,-0.4898,-0.4742,-0.4741,-0.4739,0,-0.4398,-0.4462,-0.4521,-0.4537,-0.4568,-0.4596,-0.4611,-0.4637,-0.4662,-0.4695,-0.4711,-0.475,-0.4772,-0.4802,-0.4807,-0.4778,-0.4879,-0.4841,-0.4886,-0.4886,-0.491,-0.4909,-0.5033,-0.4921,-0.492,-0.492,-0.492,0,-0.4496,-0.4548,-0.4554,-0.459,-0.4649,-0.4647,-0.4705,-0.4718,-0.4741,-0.478,-0.4768,-0.4805,-0.4808,-0.4846,-0.485,-0.4909,-0.4918,-0.4925,-0.4926,-0.4927,-0.4927,-0.4944,-0.494,-0.4923,-0.4923,-0.4922,-0.4921,0,-0.4589,-0.4594,-0.4657,-0.4681,-0.4689,-0.4731,-0.4752,-0.4787,-0.4795,-0.4844,-0.4856,-0.4869,-0.4913,-0.492,-0.4972,-0.4975,-0.5046,-0.504,-0.5037,-0.5037,-0.5082,-0.5079,-0.5224,-0.5243,-0.5116,-0.5117,-0.5118,0,-0.4652,-0.4692,-0.472,-0.4745,-0.4761,-0.4801,-0.4826,-0.4825,-0.4852,-0.4886,-0.4918,-0.496,-0.4995,-0.5067,-0.5081,-0.5121,-0.5117,-0.5165,-0.5124,-0.5124,-0.5121,-0.5119,-0.5124,-0.5175,-0.5176,-0.5177,-0.5178,0,-0.4765,-0.4765,-0.4801,-0.4838,-0.4868,-0.4897,-0.4924,-0.4945,-0.4949,-0.4979,-0.5024,-0.5051,-0.5103,-0.5147,-0.5186,-0.5202,-0.5192,-0.519,-0.5203,-0.5207,-0.5204,-0.5208,-0.5062,-0.5188,-0.5187,-0.5186,-0.5186,-0.5185,-0.4846,-0.4881,-0.4906,-0.4947,-0.4967,-0.4993,-0.5027,-0.5038,-0.5075,-0.5117,-0.5115,-0.5164,-0.5191,-0.5243,-0.5261,-0.53,-0.5285,-0.5303,-0.5308,-0.5314,-0.5319,-0.5195,-0.5307,-0.5307,-0.5307,-0.5307,-0.5306,0,-0.496,-0.4975,-0.5012,-0.505,-0.5082,-0.5067,-0.5096,-0.5124,-0.5168,-0.5193,-0.5227,-0.5278,-0.532,-0.5336,-0.5377,-0.5406,-0.5402,-0.5417,-0.5416,-0.542,-0.5329,-0.5315,-0.5419,-0.5419,-0.5419,-0.5419,-0.5419,-0.5419,-0.5024,-0.5082,-0.5085,-0.5154,-0.5168,-0.5216,-0.5234,-0.5258,-0.5278,-0.5336,-0.537,-0.538,-0.5402,-0.5445,-0.5482,-0.5486,-0.5503,-0.552,-0.5523,-0.5438,-0.5427,-0.5416,-0.5403,-0.5523,-0.5524,-0.561,-0.5611,-0.5612]},{"header":{"parameterUnit":"m.s-1","parameterCategory":1,"la1":30.2991,"la2":30.254,"lo1":-89.0895,"lo2":-89.0444,"dy":0.0017,"dx":0.0017,"nx":28,"ny":28,"refTime":"2025-11-26T03:00:00:Z","depth":0,"parameterNumber":3,"parameterNumberName":"V-component_of_WINDS"},"data":[0,0,0,0,0,0,0,0,0,0,0,0,0,0,0,0,0,0,0,0,0,0,0,0,0,0,0,0,0,0,0,0,0,0,0,0,0,0,0,0,0,0,0,0,0,0,0,0,0,0,0,0,0,0,0,0,0,0,-6.5386,-6.5387,0,-6.5488,-6.5489,-6.5491,-6.5387,-6.5383,-6.5379,-6.5375,-6.5475,-6.5482,-6.5488,0,0,0,0,0,0,0,0,0,0,0,0,0,-6.5095,-6.5101,-6.5386,-6.5387,-6.5388,-6.5488,-6.549,-6.5491,-6.5388,-6.5383,-6.5378,-6.5373,-6.5473,-6.5481,-6.5489,0,0,0,0,0,0,0,0,0,0,0,0,0,-6.5212,-6.5103,-6.5385,-6.5349,-6.5347,-6.5488,-6.549,-6.5491,-6.5389,-6.5383,-6.5377,-6.5371,-6.5471,-6.548,-6.549,-6.567,0,0,-6.5519,-6.5523,0,0,0,0,0,0,0,0,-6.5205,-6.5223,-6.5353,-6.5352,-6.5349,-6.5419,-6.5424,-6.5551,-6.539,-6.5373,-6.5375,-6.5368,-6.5461,-6.5471,-6.5504,-6.5675,-6.5679,-6.552,-6.5526,-6.553,-6.5533,0,0,0,0,0,0,0,-6.5197,-6.5218,-6.5426,-6.5355,-6.5353,-6.5326,-6.5336,-6.5447,-6.5449,-6.5374,-6.5367,-6.538,-6.5459,-6.5495,-6.5505,-6.5681,-6.552,-6.5528,-6.5534,-6.5538,-6.6005,-6.6011,0,0,0,0,0,0,-6.5194,-6.5212,-6.5423,-6.5429,-6.5261,-6.5336,-6.5347,-6.5403,-6.5448,-6.5449,-6.5386,-6.5375,-6.5481,-6.5494,-6.5508,-6.5723,-6.553,-6.5539,-6.5544,-6.5998,-6.6006,-6.6013,0,0,0,0,0,0,-6.5188,-6.5214,-6.5419,-6.5319,-6.5342,-6.5347,-6.5411,-6.5408,-6.5443,-6.5457,-6.5456,-6.5422,-6.5477,-6.5495,-6.5631,-6.5725,-6.5543,-6.5552,-6.599,-6.6001,-6.601,-6.6153,0,0,0,0,0,0,-6.518,-6.5212,-6.5282,-6.5321,-6.5348,-6.5542,-6.5416,-6.5414,-6.5461,-6.5448,-6.5491,-6.5492,-6.5473,-6.5617,-6.5641,-6.5735,-6.556,-6.5982,-6.5995,-6.6007,-6.614,-6.6167,-6.619,0,0,0,0,0,-6.517,-6.5318,-6.5287,-6.5313,-6.5436,-6.5547,-6.5563,-6.554,-6.5469,-6.5538,-6.5547,-6.5491,-6.5711,-6.5632,-6.5658,-6.5756,-6.5976,-6.5991,-6.6006,-6.6129,-6.6162,-6.6189,0,0,0,0,0,0,-6.5288,-6.5322,-6.5288,-6.5453,-6.5498,-6.553,-6.5617,-6.5575,-6.5641,-6.5626,-6.5593,-6.5603,-6.5748,-6.5765,-6.5677,-6.5933,-6.5831,-6.5852,-6.5917,-6.5948,-6.5972,-6.5965,-6.5568,0,0,0,0,0,-6.5334,-6.5423,-6.5447,-6.559,-6.5615,-6.5612,-6.566,-6.5638,-6.5683,-6.5702,-6.572,-6.5765,-6.5844,-6.5896,-6.597,-6.6142,-6.6149,-6.6222,-6.6247,-6.6267,-6.6286,-6.6377,-6.641,-6.6062,-6.6062,-6.6062,0,0,-6.5428,-6.5458,-6.5516,-6.5614,-6.5647,-6.5739,-6.5629,-6.573,-6.5798,-6.5716,-6.5847,-6.5862,-6.5909,-6.6065,-6.6134,-6.6083,-6.6383,-6.6286,-6.6302,-6.631,-6.6396,-6.6429,-6.6458,-6.6072,-6.607,-6.6069,0,0,-6.5647,-6.5679,-6.5801,-6.5837,-6.5889,-6.5886,-6.5916,-6.5954,-6.5961,-6.6092,-6.6033,-6.6111,-6.6248,-6.6285,-6.6321,-6.6554,-6.6504,-6.6578,-6.6708,-6.6798,-6.6825,-6.685,-6.6933,-6.6963,-6.6596,-6.6597,-6.6597,0,-6.5758,-6.5895,-6.5869,-6.5976,-6.602,-6.5953,-6.6076,-6.6111,-6.6183,-6.6215,-6.6157,-6.6328,-6.6355,-6.6518,-6.6575,-6.6607,-6.6638,-6.6574,-6.6824,-6.6848,-6.687,-6.6949,-6.698,-6.6606,-6.6605,-6.6604,-6.6603,0,-6.6028,-6.6124,-6.6217,-6.6291,-6.6346,-6.646,-6.645,-6.6508,-6.6482,-6.6485,-6.6618,-6.6648,-6.6727,-6.6763,-6.6738,-6.6923,-6.689,-6.6829,-6.6727,-6.6912,-6.6986,-6.7016,-6.6618,-6.6615,-6.6612,-6.661,0,0,-6.6325,-6.6383,-6.6418,-6.645,-6.6502,-6.6575,-6.6686,-6.6764,-6.6815,-6.6867,-6.6958,-6.7075,-6.702,-6.7061,-6.7039,-6.7118,-6.73,-6.7047,-6.7047,-6.7093,-6.7505,-6.7551,-6.7587,-6.7268,-6.7273,-6.7278,-6.7501,0,-6.6546,-6.674,-6.672,-6.6904,-6.6992,-6.6928,-6.7024,-6.7066,-6.7071,-6.7145,-6.715,-6.7234,-6.7154,-6.7179,-6.7254,-6.7262,-6.7383,-6.7246,-6.7351,-6.7355,-6.7342,-6.7625,-6.7674,-6.7884,-6.753,-6.7535,-6.7538,0,-6.6829,-6.6894,-6.7087,-6.7126,-6.7162,-6.7249,-6.7319,-6.7391,-6.7436,-6.7434,-6.7481,-6.7445,-6.7554,-6.745,-6.7599,-6.7507,-6.7548,-6.7558,-6.7566,-6.7575,-6.7459,-6.7642,-6.795,-6.7982,-6.7583,-6.758,-6.7576,0,-6.7027,-6.7161,-6.7294,-6.7324,-6.7373,-6.7435,-6.7458,-6.7497,-6.7545,-6.7606,-6.7637,-6.7709,-6.7748,-6.7804,-6.7788,-6.7713,-6.7941,-6.7834,-6.7941,-6.7942,-6.7993,-6.799,-6.8312,-6.8019,-6.8019,-6.8018,-6.8018,0,-6.7276,-6.7397,-6.7384,-6.7466,-6.7599,-6.7574,-6.7706,-6.772,-6.7755,-6.7838,-6.7786,-6.7864,-6.7838,-6.7914,-6.7902,-6.8027,-6.8045,-6.8046,-6.8041,-6.8051,-6.8051,-6.8078,-6.8063,-6.8027,-6.8025,-6.8023,-6.8022,0,-6.7519,-6.7516,-6.7657,-6.7691,-6.7703,-6.78,-6.7828,-6.7904,-6.7906,-6.8011,-6.8034,-6.8035,-6.8123,-6.8112,-6.8208,-6.82,-6.8356,-6.8333,-6.8342,-6.8337,-6.8445,-6.8435,-6.8796,-6.8842,-6.8519,-6.8522,-6.8525,0,-6.7679,-6.7771,-6.7816,-6.7868,-6.7896,-6.7981,-6.803,-6.8008,-6.8061,-6.812,-6.8189,-6.8272,-6.8337,-6.8478,-6.8487,-6.8561,-6.8539,-6.8661,-6.855,-6.8557,-6.8542,-6.8537,-6.8546,-6.8683,-6.8687,-6.869,-6.8692,0,-6.7962,-6.7956,-6.8031,-6.8105,-6.8166,-6.8223,-6.8275,-6.832,-6.8302,-6.8365,-6.8454,-6.8505,-6.8604,-6.8687,-6.8756,-6.8777,-6.8732,-6.8727,-6.8756,-6.8767,-6.8768,-6.8769,-6.8402,-6.8719,-6.8716,-6.8714,-6.8713,-6.8712,-6.8169,-6.8247,-6.8292,-6.8376,-6.8413,-6.8462,-6.8536,-6.8547,-6.8622,-6.8703,-6.8684,-6.8785,-6.8826,-6.8915,-6.8944,-6.9021,-6.8976,-6.9018,-6.9028,-6.9039,-6.9052,-6.8756,-6.9033,-6.9032,-6.9032,-6.9031,-6.903,0,-6.845,-6.8475,-6.8554,-6.8628,-6.8695,-6.8648,-6.8702,-6.876,-6.885,-6.8894,-6.8959,-6.9062,-6.9141,-6.9157,-6.9232,-6.9291,-6.9273,-6.9312,-6.9307,-6.9313,-6.9088,-6.9056,-6.9326,-6.9326,-6.9326,-6.9326,-6.9326,-6.9326,-6.8604,-6.8735,-6.8734,-6.8882,-6.8906,-6.9006,-6.9041,-6.9086,-6.912,-6.9238,-6.9305,-6.9315,-6.9346,-6.9424,-6.9494,-6.9497,-6.9527,-6.9575,-6.9569,-6.9358,-6.9329,-6.9301,-6.927,-6.9581,-6.9582,-6.9788,-6.979,-6.9791]}]]